Flag for Japan Weather past 2 weeks in Nagano, Japan

Now
98 °F

Extremely hot.


Feels Like: 106 °F
Forecast: 71 / 91 °F
Wind: 8 mph from West

Location: Nagano

Current Time: Jul 26, 2014 at 2:52:03 PM

Latest Report: Jul 26, 2014 at 2:00 PM


Visibility: N/A

Pressure: 29.72 "Hg

Humidity: 43%

Dew point: 71 °F

Location of NaganoLocation

Historic Weather in Nagano — Graph

°F

Nagano temperature yesterday

Maximum temperature yesterday: 93 °F (at 3:00 PM)
Minimum temperature yesterday: 72 °F (at 4:00 AM)
Average temperature yesterday: 82 °F

Past Weeks' High & Low Weather Summary

 TemperatureHumidityPressure
High95 °F (Jul 26, 1:00 PM)97% (Jul 18, 1:00 AM)29.94 "Hg (Jul 18, 1:00 AM)
Low67 °F (Jul 12, 5:00 AM)32% (Jul 12, 3:00 PM)29.35 "Hg (Jul 11, 1:00 PM)
Average77 °F75%29.79 "Hg
* Reported Jul 11 1:00 PM — Jul 26 1:00 PM, Nagano, Weather by CustomWeather, © 2014

Note: Actual official high and low records may vary slightly from our data, if they occured in-between our weather recording intervals... More about our weather records

Advertising

Nagano weather history for previous 24 hours

 ConditionsComfort  
Time TempWeatherWind HumidityBarometerVisibility
1:00 PM
Jul 26
95 °FExtremely hot.7 mph45%29.75 "HgN/A
12:00 PM95 °FExtremely hot.7 mph47%29.78 "HgN/A
11:00 AM93 °FHot.6 mph50%29.80 "HgN/A
10:00 AM89 °FHot.5 mph55%29.83 "HgN/A
9:00 AM87 °FPassing clouds.3 mph59%29.85 "Hg6 mi
8:00 AM83 °FWarm.2 mph71%29.87 "HgN/A
7:00 AM81 °FWarm.2 mph77%29.88 "HgN/A
6:00 AM77 °FMild.1 mph86%29.89 "HgN/A
5:00 AM76 °FMild.1 mph86%29.89 "HgN/A
4:00 AM77 °FMild.2 mph84%29.89 "HgN/A
3:00 AM77 °FPassing clouds.1 mph83%29.89 "Hg6 mi
2:00 AM78 °FWarm.2 mph82%29.89 "HgN/A
1:00 AM78 °FWarm.1 mph80%29.90 "HgN/A
12:00 AM79 °FWarm.2 mph79%29.92 "HgN/A
11:00 PM
Jul 25
79 °FWarm.3 mph77%29.92 "HgN/A
10:00 PM81 °FWarm.2 mph75%29.92 "HgN/A
9:00 PM82 °FOvercast.1 mph73%29.90 "Hg9 mi
8:00 PM83 °FWarm.5 mph68%29.88 "HgN/A
7:00 PM84 °FWarm.7 mph67%29.85 "HgN/A
6:00 PM86 °FWarm.9 mph64%29.83 "HgN/A
5:00 PM89 °FHot.7 mph55%29.80 "HgN/A
4:00 PM90 °FHot.9 mph54%29.79 "HgN/A
3:00 PM93 °FPassing clouds.9 mph52%29.78 "Hg16 mi
2:00 PM92 °FHot.7 mph52%29.78 "HgN/A
Weather by CustomWeather, © 2014

See weather overviewHow to use our weather pages